Regional Weather Roundup
Issued by NWS

Home | Current Version | Previous Version | Graphics & Text | Print | Product List | Glossary On
Versions: 1 2 3 4 5 6 7 8 9 10 11 12 13 14 15 16 17 18 19 20 21 22 23 24 25 26 27
000
ASUS43 KDMX 190007
RWRIA

WEATHER ROUNDUP FOR IOWA
NATIONAL WEATHER SERVICE DES MOINES IA
700 PM CDT FRI APR 18 2014

NOTE: "FAIR" INDICATES FEW OR NO CLOUDS BELOW 12,000 FEET WITH NO
SIGNIFICANT WEATHER AND/OR OBSTRUCTIONS TO VISIBILITY.

* - THESE STATIONS ARE NOT NWS STATIONS...THUS NOT UNDER NWS
QUALITY CONTROL.  THEY ALSO DO NOT REPORT WEATHER SUCH
AS PRECIPITATION OR FOG.

IAZ001>003-012>014-020>022-031>034-043>046-190100-
   NORTHWEST IOWA

CITY           SKY/WX    TMP DP  RH WIND       PRES   REMARKS
CARROLL *      SUNNY     64  32  29 S17G23    30.12F
CHEROKEE *     SUNNY     63  32  31 S18G25    30.07F
DENISON *      SUNNY     64  34  32 S16G23    30.09F
LE MARS *      SUNNY     64  37  36 S17G30    30.03S
ORANGE CITY *  SUNNY     64  34  32 S17G25    30.04S
SHELDON *      SUNNY     61  36  39 S20G28    30.04S
SIOUX CITY     MOSUNNY   67  37  33 S20G32    30.04F
6HR MIN TEMP:  62; 6HR MAX TEMP:  70;

SPENCER        SUNNY     61  31  32 SE23G35   30.08F
6HR MIN TEMP:  56; 6HR MAX TEMP:  65;

STORM LAKE *   SUNNY     61  30  31 S23       30.09F
$$

IAZ055>058-069>071-079>083-090>094-190100-
   SOUTHWEST IOWA

CITY           SKY/WX    TMP DP  RH WIND       PRES   REMARKS
ATLANTIC *     SUNNY     64  34  32 S13G18    30.12F
AUDUBON *      SUNNY     63  21  20 S12G18    30.14S
CLARINDA *     SUNNY     66  37  34 S13       30.14F
COUNCIL BLFS * SUNNY     64  41  42 S16G25    30.08F
CRESTON *      SUNNY     63  36  36 S14       30.16S
HARLAN  *      SUNNY     63  36  36 S13G22    30.14F
LAMONI         CLEAR     63  37  38 SE7       30.17F
6HR MIN TEMP:  58; 6HR MAX TEMP:  65;

RED OAK *      SUNNY     66  37  34 S16       30.12S
SHENANDOAH *   SUNNY     66  39  37 S17       30.13R
$$

IAZ047>049-059>061-072>074-084-190100-
   CENTRAL IOWA

CITY           SKY/WX    TMP DP  RH WIND       PRES   REMARKS
AMES           CLEAR     60  31  33 SE16      30.18F
6HR MIN TEMP:  55; 6HR MAX TEMP:  62;

ANKENY *       CLEAR     63  32  31 SE13      30.18F
CHARITON *     CLEAR     63  36  36 SE10      30.18F
DES MOINES     PTCLDY    64  33  31 SE13      30.18F
6HR MIN TEMP:  58; 6HR MAX TEMP:  66;

GRINNELL*      CLEAR     61  28  29 SE7       30.21F
KNOXVILLE *    CLEAR     63  32  31 SE12      30.19F
MARSHALLTOWN   CLEAR     59  28  30 SE10      30.20F
6HR MIN TEMP:  53; 6HR MAX TEMP:  61;

NEWTON *       CLEAR     61  30  31 SE12      30.21F
PELLA *        CLEAR     63  32  31 SE6       30.21F
PERRY *          N/A     64  28  25 SE16      30.15F
$$

IAZ004>006-015-016-023>025-035-036-190100-
   NORTH CENTRAL IOWA

CITY           SKY/WX    TMP DP  RH WIND       PRES   REMARKS
ALGONA *       SUNNY     59  30  33 SE18G24   30.14F
CLARION *      SUNNY     59  28  31 SE16G22   30.17F
ESTHERVILLE    SUNNY     58  32  37 SE24G31   30.11F
6HR MIN TEMP:  54; 6HR MAX TEMP:  62;

FORT DODGE *   SUNNY     61  30  31 SE14G20   30.16F
MASON CITY     CLEAR     56  30  37 SE15      30.21F
6HR MIN TEMP:  51; 6HR MAX TEMP:  59;

FOREST CITY *  SUNNY     55  32  41 SE14G20   30.18F
IOWA FALLS *     N/A     59  30  33 SE12G17   30.20F
$$

IAZ007>011-017>019-026>030-037>042-050>054-066-190100-
   NORTHEAST IOWA

CITY           SKY/WX    TMP DP  RH WIND       PRES   REMARKS
CEDAR RAPIDS   CLEAR     60  26  27 SE8       30.23F
6HR MIN TEMP:  54; 6HR MAX TEMP:  62;

CHARLES CITY * CLEAR     55  30  38 SE10G16   30.23S
CLINTON *      CLEAR     57  30  35 NE8       30.29S
DECORAH *      CLEAR     55  28  35 E12       30.25S
DUBUQUE        CLEAR     56  28  34 E6        30.27F
6HR MIN TEMP:  51; 6HR MAX TEMP:  58;

MONTICELLO *   CLEAR     59  32  36 SE6       30.26S
OELWEIN *      CLEAR    N/A N/A N/A SE14      30.24F
WATERLOO       CLEAR     58  26  29 SE10      30.22F
6HR MIN TEMP:  52; 6HR MAX TEMP:  60;

$$

IAZ064-065-067-068-078-190100-
   EAST CENTRAL IOWA

CITY           SKY/WX    TMP DP  RH WIND       PRES   REMARKS
DAVENPORT      CLEAR     60  29  30 SE5       30.28R
6HR MIN TEMP:  55; 6HR MAX TEMP:  63;

IOWA CITY      CLEAR     60  29  30 SE8       30.26S
6HR MIN TEMP:  53; 6HR MAX TEMP:  62;

MT. PLEASANT * CLEAR     63  21  20 E6        30.23F
MUSCATINE *    CLEAR     63  30  29 CALM      30.25S
QUAD CITIES    CLEAR     60  29  30 NE7       30.24F
6HR MIN TEMP:  55; 6HR MAX TEMP:  64;

$$

IAZ062-063-075>077-085>089-095>099-190100-
   SOUTHEAST IOWA

CITY           SKY/WX    TMP DP  RH WIND       PRES   REMARKS
BURLINGTON     CLEAR     63  29  27 CALM      30.23F
6HR MIN TEMP:  56; 6HR MAX TEMP:  64;

FAIRFIELD *    CLEAR     61  28  29 SE6       30.22F
FORT MADISON * CLEAR     63  32  31 CALM      30.24S
KEOKUK *       CLEAR     63  30  29 E5        30.22F
OSKALOOSA *      N/A     62  31  30 SE8       30.22S
CENTERVILLE *  CLEAR     63  37  39 SE8       30.21F
OTTUMWA        CLEAR     62  30  29 SE7       30.21F
6HR MIN TEMP:  55; 6HR MAX TEMP:  65;

WASHINGTON *   CLEAR     63  27  25 E7        30.23F
$$

ABBREVIATIONS USED IN REMARKS
   TC - TEMPERATURES IN CELSIUS
  WCI - WIND CHILL INDEX
   HX - HEAT INDEX
  VSB - VISIBILITY
$$




USA.gov is the U.S. government's official web portal to all federal, state and local government web resources and services.